DW1806 Weather Reports


Display with metric or nautical units.
time (UTC)temp
F
wind
direction
speed
MPH
gust
MPH
rain 1hr
in
rain 24hr
in
rain mn
in
humidity
%
barometer
mb
20260504223554 71 236 0.0 0.0 0.00 0.00 0.00 41 1000.8
20260504223052 71 276 0.0 0.0 0.00 0.00 0.00 40 1000.8
20260504222553 71 274 0.0 0.0 0.00 0.00 0.00 40 1000.8
20260504222051 72 229 0.0 0.0 0.00 0.00 0.00 39 1000.9
20260504221553 72 172 0.0 0.0 0.00 0.00 0.00 38 1000.8
20260504221051 72 221 0.0 0.0 0.00 0.00 0.00 36 1000.8
20260504220551 72 201 0.0 0.0 0.00 0.00 0.00 36 1000.8
20260504220051 72 227 0.0 0.0 0.00 0.00 0.00 35 1000.8
20260504215554 72 239 0.0 0.0 0.00 0.00 0.00 35 1000.7
20260504215050 73 206 0.0 0.0 0.00 0.00 0.00 35 1000.8
20260504214557 73 232 0.0 0.0 0.00 0.00 0.00 35 1000.7
20260504214050 73 280 0.0 0.0 0.00 0.00 0.00 34 1000.7
20260504213549 74 222 0.0 0.0 0.00 0.00 0.00 35 1000.7
20260504213049 73 274 0.0 0.0 0.00 0.00 0.00 35 1000.7
20260504212548 73 222 0.0 0.0 0.00 0.00 0.00 34 1000.7
20260504212049 73 159 0.0 0.0 0.00 0.00 0.00 37 1000.7
20260504211546 73 216 0.0 0.0 0.00 0.00 0.00 39 1000.7
20260504211045 72 193 0.0 0.0 0.00 0.00 0.00 40 1000.7
20260504210544 71 221 0.0 0.0 0.00 0.00 0.00 42 1000.8
20260504210056 71 271 0.0 0.0 0.00 0.00 0.00 42 1001.0
20260504205543 71 163 0.0 0.0 0.00 0.00 0.00 40 1001.1
20260504205043 71 204 0.0 0.0 0.00 0.00 0.00 41 1001.2
20260504204557 71 213 0.0 0.0 0.00 0.00 0.00 41 1001.2
20260504204042 71 216 0.0 0.0 0.00 0.00 0.00 41 1001.3
20260504203541 71 255 0.0 0.0 0.00 0.00 0.00 42 1001.3
20260504203044 71 217 0.0 0.0 0.00 0.00 0.00 42 1001.3
20260504202541 71 252 0.0 0.0 0.00 0.00 0.00 42 1001.4
20260504202039 72 204 0.0 0.0 0.00 0.00 0.00 42 1001.5
20260504201540 72 225 0.0 0.0 0.00 0.00 0.00 43 1001.4
20260504201039 71 221 0.0 0.0 0.00 0.00 0.00 44 1001.5
20260504200538 71 197 0.0 0.0 0.00 0.00 0.00 43 1001.5
20260504200038 71 178 0.0 0.0 0.00 0.00 0.00 42 1001.7
20260504195537 72 222 0.0 0.0 0.00 0.00 0.00 43 1001.8
20260504195038 72 221 0.0 0.0 0.00 0.00 0.00 43 1001.8
20260504194536 71 173 0.0 0.0 0.00 0.00 0.00 43 1001.8
20260504194036 71 177 0.0 0.0 0.00 0.00 0.00 43 1001.9
20260504193535 71 257 0.0 0.0 0.00 0.00 0.00 43 1002.0
20260504193034 71 205 0.0 0.0 0.00 0.00 0.00 43 1002.1
20260504192533 71 190 0.0 0.0 0.00 0.00 0.00 45 1002.2
20260504192032 71 269 0.0 0.0 0.00 0.00 0.00 44 1002.2
20260504191532 71 239 0.0 0.0 0.00 0.00 0.00 45 1002.3
20260504191034 70 217 0.0 0.0 0.00 0.00 0.00 45 1002.4
20260504190531 70 191 0.0 0.0 0.00 0.00 0.00 45 1002.4
20260504190030 70 191 0.0 0.0 0.00 0.00 0.00 45 1002.5
20260504185530 70 183 0.0 0.0 0.00 0.00 0.00 44 1002.6
20260504185032 70 240 0.0 0.0 0.00 0.00 0.00 43 1002.5
20260504184529 70 227 0.0 0.0 0.00 0.00 0.00 45 1002.6
20260504184027 70 201 0.0 0.0 0.00 0.00 0.00 45 1002.6
20260504183526 69 218 0.0 0.0 0.00 0.00 0.00 45 1002.7
20260504183025 69 236 0.0 0.0 0.00 0.00 0.00 46 1002.8
20260504182525 69 237 0.0 0.0 0.00 0.00 0.00 46 1002.9
20260504182023 68 181 0.0 0.0 0.00 0.00 0.00 47 1002.9
20260504181523 69 225 0.0 0.0 0.00 0.00 0.00 47 1003.0
20260504181024 68 194 0.0 0.0 0.00 0.00 0.00 48 1003.1
20260504180522 68 194 0.0 0.0 0.00 0.00 0.00 47 1003.2
20260504180021 69 223 0.0 0.0 0.00 0.00 0.00 47 1003.3
20260504175520 69 242 0.0 0.0 0.00 0.00 0.00 49 1003.4
20260504175020 68 279 0.0 0.0 0.00 0.00 0.00 48 1003.5
20260504174518 68 198 0.0 0.0 0.00 0.00 0.00 49 1003.6
20260504174017 67 167 0.0 0.0 0.00 0.00 0.00 49 1003.6
20260504173516 67 175 0.0 0.0 0.00 0.00 0.00 49 1003.7
20260504173015 67 196 0.0 0.0 0.00 0.00 0.00 49 1003.7
20260504172515 67 188 0.0 0.0 0.00 0.00 0.00 50 1003.7
20260504172014 67 265 0.0 0.0 0.00 0.00 0.00 50 1003.7
20260504171514 66 191 0.0 0.0 0.00 0.00 0.00 51 1003.7
20260504171018 66 215 0.0 0.0 0.00 0.00 0.00 51 1003.7
20260504170514 66 192 0.0 0.0 0.00 0.00 0.00 50 1003.7
20260504151059 61 212 0.0 0.0 0.00 0.00 0.00 53 1004.7
20260504150559 62 238 0.0 0.0 0.00 0.00 0.00 52 1004.8
20260504141054 61 229 0.0 0.0 0.00 0.00 0.00 52 1004.6
20260504140553 61 232 0.0 0.0 0.00 0.00 0.00 53 1004.7
20260504130546 58 217 0.0 0.0 0.00 0.00 0.00 53 1004.9
20260504110527 51 189 0.0 0.0 0.00 0.00 0.00 61 1005.3
20260504100525 51 231 0.0 0.0 0.00 0.00 0.00 59 1005.0
20260504081517 51 215 0.0 0.0 0.00 0.00 0.00 60 1006.1
20260504081016 51 217 0.0 0.0 0.00 0.00 0.00 62 1006.1
20260504080516 51 187 0.0 0.0 0.00 0.00 0.00 64 1006.2
20260504050556 52 258 0.0 0.0 0.00 0.00 0.00 66 1007.6
20260504045554 52 144 0.0 0.0 0.00 0.00 0.00 63 1007.7
20260504045054 52 219 0.0 0.0 0.00 0.00 0.00 62 1007.8
20260504044556 52 213 0.0 0.0 0.00 0.00 0.00 61 1007.8
20260504044053 52 234 0.0 0.0 0.00 0.00 0.00 62 1007.8
20260504043552 51 225 0.0 0.0 0.00 0.00 0.00 62 1007.9
20260504043056 51 320 0.0 0.0 0.00 0.00 0.00 63 1007.9
20260504042551 51 178 0.0 0.0 0.00 0.00 0.00 63 1007.9
20260504042050 51 249 0.0 0.0 0.00 0.00 0.00 62 1007.9
20260504041549 51 280 0.0 0.0 0.00 0.00 0.00 63 1007.9
20260504041049 51 236 0.0 0.0 0.00 0.00 0.00 63 1007.9
20260504040549 51 276 0.0 0.0 0.00 0.00 0.00 63 1007.8
20260504040049 51 205 0.0 0.0 0.00 0.00 0.00 62 1007.7
20260504035546 51 163 0.0 0.0 0.00 0.00 0.00 61 1007.6
20260504035045 52 248 0.0 0.0 0.00 0.00 0.00 60 1007.6
20260504034552 52 232 0.0 0.0 0.00 0.00 0.00 60 1007.6
20260504034045 52 238 0.0 0.0 0.00 0.00 0.00 59 1007.6
20260504033540 52 178 0.0 0.0 0.00 0.00 0.00 58 1007.7
20260504033039 53 227 0.0 0.0 0.00 0.00 0.00 57 1007.7
20260504032538 53 247 0.0 0.0 0.00 0.00 0.00 57 1007.8
20260504032036 53 205 0.0 0.0 0.00 0.00 0.00 56 1007.8
20260504031535 54 232 0.0 0.0 0.00 0.00 0.00 55 1007.8
20260504031035 54 216 0.0 0.0 0.00 0.00 0.00 54 1007.8
20260504030532 55 219 0.0 0.0 0.00 0.00 0.00 53 1007.8
20260504030035 55 164 0.0 0.0 0.00 0.00 0.00 52 1007.8
20260504025529 55 210 0.0 0.0 0.00 0.00 0.00 52 1007.8
20260504025027 55 209 0.0 0.0 0.00 0.00 0.00 52 1007.8
20260504024527 55 219 0.0 0.0 0.00 0.00 0.00 51 1007.8
20260504024026 55 183 0.0 0.0 0.00 0.00 0.00 51 1007.9
20260504023526 55 207 0.0 0.0 0.00 0.00 0.00 52 1007.9
20260504023025 54 175 0.0 0.0 0.00 0.00 0.00 53 1007.9
20260504022525 54 221 0.0 0.0 0.00 0.00 0.00 54 1008.0
20260504022025 54 216 0.0 0.0 0.00 0.00 0.00 54 1008.1
20260504021526 54 204 0.0 0.0 0.00 0.00 0.00 55 1008.1
20260504021024 54 215 0.0 0.0 0.00 0.00 0.00 56 1008.1
20260504020522 53 175 0.0 0.0 0.00 0.00 0.00 56 1008.1
20260504020034 53 225 0.0 0.0 0.00 0.00 0.00 56 1008.1
20260504015520 53 219 0.0 0.0 0.00 0.00 0.00 56 1008.1
20260504015018 53 232 0.0 0.0 0.00 0.00 0.00 57 1008.1
20260504014521 53 217 0.0 0.0 0.00 0.00 0.00 57 1008.1
20260504014019 54 172 0.0 0.0 0.00 0.00 0.00 56 1008.0
20260504013514 54 209 0.0 0.0 0.00 0.00 0.00 54 1008.1
20260504013013 54 227 0.0 0.0 0.00 0.00 0.00 53 1008.1
20260504012511 55 174 0.0 0.0 0.00 0.00 0.00 52 1008.0
20260504012011 55 261 0.0 0.0 0.00 0.00 0.00 51 1008.1
20260504011507 55 219 0.0 0.0 0.00 0.00 0.00 52 1008.2
20260504011006 55 240 0.0 0.0 0.00 0.00 0.00 51 1008.1
20260504010509 55 205 0.0 0.0 0.00 0.00 0.00 51 1008.1
20260504010005 55 242 0.0 0.0 0.00 0.00 0.00 51 1008.1
20260504005504 55 242 0.0 0.0 0.00 0.00 0.00 52 1008.1
20260504005004 55 203 0.0 0.0 0.00 0.00 0.00 52 1007.9
20260504004508 55 232 0.0 0.0 0.00 0.00 0.00 52 1008.0
20260504004002 54 283 0.0 0.0 0.00 0.00 0.00 53 1008.0
20260504003502 54 202 0.0 0.0 0.00 0.00 0.00 54 1007.9
20260504003002 54 229 0.0 0.0 0.00 0.00 0.00 54 1007.9
20260504002502 54 234 0.0 0.0 0.00 0.00 0.00 54 1007.9
20260504002002 54 250 0.0 0.0 0.00 0.00 0.00 55 1008.0
20260504001504 54 232 0.0 0.0 0.00 0.00 0.00 56 1008.0
20260504001059 54 259 0.0 0.0 0.00 0.00 0.00 56 1008.0
20260504000558 54 273 0.0 0.0 0.00 0.00 0.00 56 1008.0
20260504000106 54 258 0.0 0.0 0.00 0.00 0.00 56 1008.1
20260503235555 54 191 0.0 0.0 0.00 0.00 0.00 56 1008.1
20260503235055 54 270 0.0 0.0 0.00 0.00 0.00 56 1008.3
20260503234555 54 230 0.0 0.0 0.00 0.00 0.00 55 1008.2
20260503234055 54 228 0.0 0.0 0.00 0.00 0.00 55 1008.3
20260503233556 54 187 0.0 0.0 0.00 0.00 0.00 55 1008.3
20260503233054 54 259 0.0 0.0 0.00 0.00 0.00 55 1008.3
20260503232552 54 265 0.0 0.0 0.00 0.00 0.00 56 1008.3
20260503232052 54 227 0.0 0.0 0.00 0.00 0.00 57 1008.3
20260503231552 54 223 0.0 0.0 0.00 0.00 0.00 58 1008.3
20260503231056 54 251 0.0 0.0 0.00 0.00 0.00 59 1008.3
20260503230555 54 264 0.0 0.0 0.00 0.00 0.00 58 1008.3
20260503230052 54 211 0.0 0.0 0.00 0.00 0.00 59 1008.4
20260503225551 54 252 0.0 0.0 0.00 0.00 0.00 59 1008.4
20260503225051 54 218 0.0 0.0 0.00 0.00 0.00 59 1008.4
20260503224559 54 202 0.0 0.0 0.00 0.00 0.00 59 1008.5
20260503224051 54 270 0.0 0.0 0.00 0.00 0.00 59 1008.5